OBJECT B, 65939

Orbit data source: Space-Track

You're viewing an Uncataloged Satellite

Recently launched and/or uncataloged satellites may have evolving metadata. Metadata may include but not limited to: Owner, Maufacturer, Bus, Motor, and Mission.

OBJECT B, 65939 is a satellite owned by Shikong Daoyu (CN) in SSO that was launched on Sat, 11 Oct 2025 UTC via a YINLI-1 launch vehicle from the Yellow Sea Launch Area, China (YSLA). Unknown objects in Earth's orbit typically refer to objects detected orbiting the Earth but have not yet been identified or cataloged. These objects could be anything from previously untracked satellites, spent rocket stages, debris from satellite collisions, or even natural meteoroids temporarily captured by Earth's gravity.

Loading next visibility...
Identifier
65939, 2025-226B
Orbit
SSO
Country
Flag of CNCN / PRC
Related business
Flag of CNShikong Daoyi Keji YG (CN)
Manufacturer
GWCG
Mission
Operational spacecraft
Bus & Motor
GSP50, Unknown motor
Mass
~50 kg wet, ~50 kg dry
Launch date (UTC)
2025-10-11 (1 week ago)
Launch vehicle
YINLI-1
Launch site
Yellow Sea Launch Area, China (YSLA)
Object type
Unknown
Shape & HBR
Unknown
Radar Cross Section
RCS unknown

Expand to show TLE details & history
Last TLE update: 3 days ago

TLE from 3 days ago
0 OBJECT B
1 65939U 25226B   25288.11449019  .00006878  00000-0  41438-3 0  9995
2 65939  97.6635   2.2519 0013950 262.6480  97.3164 15.11034630   605
Epoch: 2025-10-15T02:44Z
TLE epoch observation values (Epoch: 2025-10-15T02:44:51.952Z)
Latitude
-0.00004°
Longitude
-62.85777°
Altitude
537.355 km
Speed
7.593 km/s
True Right ascension
00h 09m 00s
True Declination
0° 00' 00"
Sunlit
Object was in full shadow at epoch
Visualization orbit readout
Latitude
Unknown
Longitude
Unknown
Altitude
Unknown
Speed
Unknown
Apparent Right ascension
Unknown
Apparent Declination
Unknown
Sunlit
N/A
Visualization observer readout
Local Sidereal Time
21:28:12
Azimuth
Unknown
Elevation
Unknown
Doppler factor
Unknown
Orbital elements
Apogee altitude
539.669 km
Perigee altitude
520.395 km
Semi-major axis
6,908.169 km
Eccentricity
0.0014
Inclination
97.6635°
RAAN
2.2519°
Arg. of periapsis
262.648°
True anomaly
97.47492°
Mean anomaly
97.3164°
Eccentric anomaly
97.39566°
Mean motion
3.78006 °/min
Orbital period
95.24 mins
BSTAR
0.00041438
Loading maneuver chart data...
Computing Atmospheric mass density...
Loading historical data...
Loading historical data...
Loading historical data...
Loading historical data...
Loading historical data...
Loading historical data...
Loading historical data...
Other satellites on launch #226 in the year 2025 (2025-10-11 UTC)

Documentation

Showing up to 5 results
|